owner,sensor,date,latitude,longitude,vertical_datum,mass_concentration_of_oxygen_in_sea_water,qcFlag 
DISL,ioos:station:DISL:MHPA:1,2010-10-01T00:00:00Z,30.6671,-87.9365,2.99,7.69,1111122 
DISL,ioos:station:DISL:MHPA:1,2010-10-01T00:30:00Z,30.6671,-87.9365,3.131,7.74,1111122 
DISL,ioos:station:DISL:MHPA:1,2010-10-01T01:00:00Z,30.6671,-87.9365,3.324,7.14,1111122 
DISL,ioos:station:DISL:MHPA:1,2010-10-01T01:30:00Z,30.6671,-87.9365,3.438,6.95,1111122 
DISL,ioos:station:DISL:MHPA:1,2010-10-01T02:00:00Z,30.6671,-87.9365,3.595,6.56,1111122 
DISL,ioos:station:DISL:MHPA:1,2010-10-01T02:30:00Z,30.6671,-87.9365,3.706,6.33,1111122 
DISL,ioos:station:DISL:MHPA:1,2010-10-01T03:00:00Z,30.6671,-87.9365,3.827,6.66,1111122 
DISL,ioos:station:DISL:MHPA:1,2010-10-01T03:30:00Z,30.6671,-87.9365,3.915,6.69,1111122 
DISL,ioos:station:DISL:MHPA:1,2010-10-01T04:00:00Z,30.6671,-87.9365,3.972,6.54,1111122 
DISL,ioos:station:DISL:MHPA:1,2010-10-01T04:30:00Z,30.6671,-87.9365,4.064,6.32,1111122 
DISL,ioos:station:DISL:MHPA:1,2010-10-01T05:00:00Z,30.6671,-87.9365,4.09,6.11,1111122 
DISL,ioos:station:DISL:MHPA:1,2010-10-01T05:30:00Z,30.6671,-87.9365,4.127,6.06,1111122 
DISL,ioos:station:DISL:MHPA:1,2010-10-01T06:00:00Z,30.6671,-87.9365,4.192,5.97,1111122 
DISL,ioos:station:DISL:MHPA:1,2010-10-01T06:30:00Z,30.6671,-87.9365,4.276,6.18,1111122 
DISL,ioos:station:DISL:MHPA:1,2010-10-01T07:00:00Z,30.6671,-87.9365,4.266,6.11,1111122 
DISL,ioos:station:DISL:MHPA:1,2010-10-01T07:30:00Z,30.6671,-87.9365,4.333,6.18,1111122 
DISL,ioos:station:DISL:MHPA:1,2010-10-01T08:00:00Z,30.6671,-87.9365,4.33,5.96,1111122 
DISL,ioos:station:DISL:MHPA:1,2010-10-01T08:30:00Z,30.6671,-87.9365,4.327,5.77,1111122 
DISL,ioos:station:DISL:MHPA:1,2010-10-01T09:00:00Z,30.6671,-87.9365,4.366,5.7,1111122 
DISL,ioos:station:DISL:MHPA:1,2010-10-01T09:30:00Z,30.6671,-87.9365,4.369,5.35,1111122 
DISL,ioos:station:DISL:MHPA:1,2010-10-01T10:00:00Z,30.6671,-87.9365,4.362,5.32,1111122 
DISL,ioos:station:DISL:MHPA:1,2010-10-01T10:30:00Z,30.6671,-87.9365,4.311,4.82,1111122 
DISL,ioos:station:DISL:MHPA:1,2010-10-01T11:00:00Z,30.6671,-87.9365,4.241,4.69,1111122 
DISL,ioos:station:DISL:MHPA:1,2010-10-01T11:30:00Z,30.6671,-87.9365,4.139,4.46,1111122 
DISL,ioos:station:DISL:MHPA:1,2010-10-01T12:00:00Z,30.6671,-87.9365,4.028,4.25,1111122 
DISL,ioos:station:DISL:MHPA:1,2010-10-01T12:30:00Z,30.6671,-87.9365,3.897,4.17,1111122 
DISL,ioos:station:DISL:MHPA:1,2010-10-01T13:00:00Z,30.6671,-87.9365,3.778,4.6,1111122 
DISL,ioos:station:DISL:MHPA:1,2010-10-01T13:30:00Z,30.6671,-87.9365,3.674,4.8,1111122 
DISL,ioos:station:DISL:MHPA:1,2010-10-01T14:00:00Z,30.6671,-87.9365,3.579,5.16,1111122 
DISL,ioos:station:DISL:MHPA:1,2010-10-01T14:30:00Z,30.6671,-87.9365,3.484,5.11,1111122 
DISL,ioos:station:DISL:MHPA:1,2010-10-01T15:00:00Z,30.6671,-87.9365,3.38,5.13,1111122 
DISL,ioos:station:DISL:MHPA:1,2010-10-01T15:30:00Z,30.6671,-87.9365,3.299,5.04,1111122 
DISL,ioos:station:DISL:MHPA:1,2010-10-01T16:00:00Z,30.6671,-87.9365,3.231,4.91,1111122 
DISL,ioos:station:DISL:MHPA:1,2010-10-01T16:30:00Z,30.6671,-87.9365,3.156,5.45,1111122 
DISL,ioos:station:DISL:MHPA:1,2010-10-01T17:00:00Z,30.6671,-87.9365,3.098,5.6,1111122 
DISL,ioos:station:DISL:MHPA:1,2010-10-01T17:30:00Z,30.6671,-87.9365,3.033,5.92,1111122 
DISL,ioos:station:DISL:MHPA:1,2010-10-01T18:00:00Z,30.6671,-87.9365,2.928,6.15,1111122 
DISL,ioos:station:DISL:MHPA:1,2010-10-01T18:30:00Z,30.6671,-87.9365,2.833,6.58,1111122 
DISL,ioos:station:DISL:MHPA:1,2010-10-01T19:00:00Z,30.6671,-87.9365,2.714,6.49,1111122 
DISL,ioos:station:DISL:MHPA:1,2010-10-01T19:30:00Z,30.6671,-87.9365,2.601,6.32,1111122 
DISL,ioos:station:DISL:MHPA:1,2010-10-01T20:00:00Z,30.6671,-87.9365,2.528,6.5,1111122 
DISL,ioos:station:DISL:MHPA:1,2010-10-01T20:30:00Z,30.6671,-87.9365,2.493,6.95,1111122 
DISL,ioos:station:DISL:MHPA:1,2010-10-01T21:00:00Z,30.6671,-87.9365,2.462,6.87,1111122 
DISL,ioos:station:DISL:MHPA:1,2010-10-01T21:30:00Z,30.6671,-87.9365,2.421,7.12,1111122 
DISL,ioos:station:DISL:MHPA:1,2010-10-01T22:00:00Z,30.6671,-87.9365,2.401,7.16,1111122 
DISL,ioos:station:DISL:MHPA:1,2010-10-01T22:30:00Z,30.6671,-87.9365,2.407,7.3,1111122 
DISL,ioos:station:DISL:MHPA:1,2010-10-01T23:00:00Z,30.6671,-87.9365,2.42,7.45,1111122 
DISL,ioos:station:DISL:MHPA:1,2010-10-01T23:30:00Z,30.6671,-87.9365,2.474,7.47,1111122 
DISL,ioos:station:DISL:MHPA:1,2010-10-02T00:00:00Z,30.6671,-87.9365,2.489,7.45,1111122 
DISL,ioos:station:DISL:MHPA:1,2010-10-02T00:30:00Z,30.6671,-87.9365,2.532,7.23,1111122 
DISL,ioos:station:DISL:MHPA:1,2010-10-02T01:00:00Z,30.6671,-87.9365,2.621,7.05,1111122 
DISL,ioos:station:DISL:MHPA:1,2010-10-02T01:30:00Z,30.6671,-87.9365,2.703,7.19,1111122 
DISL,ioos:station:DISL:MHPA:1,2010-10-02T02:00:00Z,30.6671,-87.9365,2.765,7.44,1111122 
DISL,ioos:station:DISL:MHPA:1,2010-10-02T02:30:00Z,30.6671,-87.9365,2.838,7.35,1111122 
DISL,ioos:station:DISL:MHPA:1,2010-10-02T03:00:00Z,30.6671,-87.9365,2.923,7.31,1111122 
DISL,ioos:station:DISL:MHPA:1,2010-10-02T03:30:00Z,30.6671,-87.9365,3.02,7.45,1111122 
DISL,ioos:station:DISL:MHPA:1,2010-10-02T04:00:00Z,30.6671,-87.9365,3.1,7.42,1111122 
DISL,ioos:station:DISL:MHPA:1,2010-10-02T04:30:00Z,30.6671,-87.9365,3.214,7.14,1111122 
DISL,ioos:station:DISL:MHPA:1,2010-10-02T05:00:00Z,30.6671,-87.9365,3.306,6.91,1111122 
DISL,ioos:station:DISL:MHPA:1,2010-10-02T05:30:00Z,30.6671,-87.9365,3.387,6.52,1111122 
DISL,ioos:station:DISL:MHPA:1,2010-10-02T06:00:00Z,30.6671,-87.9365,3.441,6.27,1111122 
DISL,ioos:station:DISL:MHPA:1,2010-10-02T06:30:00Z,30.6671,-87.9365,3.47,6.25,1111122 
DISL,ioos:station:DISL:MHPA:1,2010-10-02T07:00:00Z,30.6671,-87.9365,3.515,6.34,1111122 
DISL,ioos:station:DISL:MHPA:1,2010-10-02T07:30:00Z,30.6671,-87.9365,3.579,5.98,1111122 
DISL,ioos:station:DISL:MHPA:1,2010-10-02T08:00:00Z,30.6671,-87.9365,3.59,5.96,1111122 
DISL,ioos:station:DISL:MHPA:1,2010-10-02T08:30:00Z,30.6671,-87.9365,3.668,5.47,1111122 
DISL,ioos:station:DISL:MHPA:1,2010-10-02T09:00:00Z,30.6671,-87.9365,3.714,5.26,1111122 
DISL,ioos:station:DISL:MHPA:1,2010-10-02T09:30:00Z,30.6671,-87.9365,3.766,4.95,1111122 
DISL,ioos:station:DISL:MHPA:1,2010-10-02T10:00:00Z,30.6671,-87.9365,3.858,5.6,1111122 
DISL,ioos:station:DISL:MHPA:1,2010-10-02T10:30:00Z,30.6671,-87.9365,3.941,5.22,1111122 
DISL,ioos:station:DISL:MHPA:1,2010-10-02T11:00:00Z,30.6671,-87.9365,3.992,5.47,1111122 
DISL,ioos:station:DISL:MHPA:1,2010-10-02T11:30:00Z,30.6671,-87.9365,4.011,5.43,1111122 
DISL,ioos:station:DISL:MHPA:1,2010-10-02T12:00:00Z,30.6671,-87.9365,4.026,5.19,1111122 
DISL,ioos:station:DISL:MHPA:1,2010-10-02T12:30:00Z,30.6671,-87.9365,4.039,4.71,1111122 
DISL,ioos:station:DISL:MHPA:1,2010-10-02T13:00:00Z,30.6671,-87.9365,4.053,4.85,1111122 
DISL,ioos:station:DISL:MHPA:1,2010-10-02T13:30:00Z,30.6671,-87.9365,4.022,4.82,1111122 
DISL,ioos:station:DISL:MHPA:1,2010-10-02T14:00:00Z,30.6671,-87.9365,3.958,4.95,1111122 
DISL,ioos:station:DISL:MHPA:1,2010-10-02T14:30:00Z,30.6671,-87.9365,3.91,5.04,1111122 
DISL,ioos:station:DISL:MHPA:1,2010-10-02T15:00:00Z,30.6671,-87.9365,3.865,5.19,1111122 
DISL,ioos:station:DISL:MHPA:1,2010-10-02T15:30:00Z,30.6671,-87.9365,3.805,5.93,1111122 
DISL,ioos:station:DISL:MHPA:1,2010-10-02T16:00:00Z,30.6671,-87.9365,3.747,5.76,1111122 
DISL,ioos:station:DISL:MHPA:1,2010-10-02T16:30:00Z,30.6671,-87.9365,3.662,5.78,1111122 
DISL,ioos:station:DISL:MHPA:1,2010-10-02T17:00:00Z,30.6671,-87.9365,3.541,5.25,1111122 
DISL,ioos:station:DISL:MHPA:1,2010-10-02T17:30:00Z,30.6671,-87.9365,3.432,5.68,1111122 
DISL,ioos:station:DISL:MHPA:1,2010-10-02T18:00:00Z,30.6671,-87.9365,3.324,5.75,1111122 
DISL,ioos:station:DISL:MHPA:1,2010-10-02T18:30:00Z,30.6671,-87.9365,3.228,5.75,1111122 
DISL,ioos:station:DISL:MHPA:1,2010-10-02T19:00:00Z,30.6671,-87.9365,3.143,5.92,1111122 
DISL,ioos:station:DISL:MHPA:1,2010-10-02T19:30:00Z,30.6671,-87.9365,3.032,6.37,1111122 
DISL,ioos:station:DISL:MHPA:1,2010-10-02T20:00:00Z,30.6671,-87.9365,2.911,6.9,1111122 
DISL,ioos:station:DISL:MHPA:1,2010-10-02T20:30:00Z,30.6671,-87.9365,2.828,7.34,1111122 
DISL,ioos:station:DISL:MHPA:1,2010-10-02T21:00:00Z,30.6671,-87.9365,2.744,7.51,1111122 
DISL,ioos:station:DISL:MHPA:1,2010-10-02T21:30:00Z,30.6671,-87.9365,2.671,7.61,1111122 
DISL,ioos:station:DISL:MHPA:1,2010-10-02T22:00:00Z,30.6671,-87.9365,2.608,7.48,1111122 
DISL,ioos:station:DISL:MHPA:1,2010-10-02T22:30:00Z,30.6671,-87.9365,2.531,7.6,1111122 
DISL,ioos:station:DISL:MHPA:1,2010-10-02T23:00:00Z,30.6671,-87.9365,2.486,7.32,1111122 
DISL,ioos:station:DISL:MHPA:1,2010-10-02T23:30:00Z,30.6671,-87.9365,2.445,7.54,1111122 
DISL,ioos:station:DISL:MHPA:1,2010-10-03T00:00:00Z,30.6671,-87.9365,2.438,7.76,1111122 
DISL,ioos:station:DISL:MHPA:1,2010-10-03T00:30:00Z,30.6671,-87.9365,2.452,7.57,1111122 
DISL,ioos:station:DISL:MHPA:1,2010-10-03T01:00:00Z,30.6671,-87.9365,2.499,7.6,1111122 
DISL,ioos:station:DISL:MHPA:1,2010-10-03T01:30:00Z,30.6671,-87.9365,2.556,7.58,1111122 
DISL,ioos:station:DISL:MHPA:1,2010-10-03T02:00:00Z,30.6671,-87.9365,2.62,7.38,1111122 
DISL,ioos:station:DISL:MHPA:1,2010-10-03T02:30:00Z,30.6671,-87.9365,2.738,7.6,1111122 
DISL,ioos:station:DISL:MHPA:1,2010-10-03T03:00:00Z,30.6671,-87.9365,2.858,7.63,1111122 
DISL,ioos:station:DISL:MHPA:1,2010-10-03T03:30:00Z,30.6671,-87.9365,2.946,7.49,1111122 
DISL,ioos:station:DISL:MHPA:1,2010-10-03T04:00:00Z,30.6671,-87.9365,3.024,7.43,1111122 
DISL,ioos:station:DISL:MHPA:1,2010-10-03T04:30:00Z,30.6671,-87.9365,3.115,7.08,1111122 
DISL,ioos:station:DISL:MHPA:1,2010-10-03T05:00:00Z,30.6671,-87.9365,3.163,6.49,1111122 
DISL,ioos:station:DISL:MHPA:1,2010-10-03T05:30:00Z,30.6671,-87.9365,3.201,6.6,1111122 
DISL,ioos:station:DISL:MHPA:1,2010-10-03T06:00:00Z,30.6671,-87.9365,3.224,6.28,1111122 
DISL,ioos:station:DISL:MHPA:1,2010-10-03T06:30:00Z,30.6671,-87.9365,3.214,6.29,1111122 
DISL,ioos:station:DISL:MHPA:1,2010-10-03T07:00:00Z,30.6671,-87.9365,3.187,6.01,1111122 
DISL,ioos:station:DISL:MHPA:1,2010-10-03T07:30:00Z,30.6671,-87.9365,3.154,5.97,1111122 
DISL,ioos:station:DISL:MHPA:1,2010-10-03T08:00:00Z,30.6671,-87.9365,3.135,5.81,1111122 
DISL,ioos:station:DISL:MHPA:1,2010-10-03T08:30:00Z,30.6671,-87.9365,3.128,5.91,1111122 
DISL,ioos:station:DISL:MHPA:1,2010-10-03T09:00:00Z,30.6671,-87.9365,3.135,5.83,1111122 
DISL,ioos:station:DISL:MHPA:1,2010-10-03T09:30:00Z,30.6671,-87.9365,3.114,5.89,1111122 
DISL,ioos:station:DISL:MHPA:1,2010-10-03T10:00:00Z,30.6671,-87.9365,3.032,5.51,1111122 
DISL,ioos:station:DISL:MHPA:1,2010-10-03T10:30:00Z,30.6671,-87.9365,2.959,5.38,1111122 
DISL,ioos:station:DISL:MHPA:1,2010-10-03T11:00:00Z,30.6671,-87.9365,2.884,5.05,1111122 
DISL,ioos:station:DISL:MHPA:1,2010-10-03T11:30:00Z,30.6671,-87.9365,2.828,4.85,1111122 
DISL,ioos:station:DISL:MHPA:1,2010-10-03T12:00:00Z,30.6671,-87.9365,2.815,5.04,1111122 
DISL,ioos:station:DISL:MHPA:1,2010-10-03T12:30:00Z,30.6671,-87.9365,2.828,5.52,1111122 
DISL,ioos:station:DISL:MHPA:1,2010-10-03T13:00:00Z,30.6671,-87.9365,2.821,5.66,1111122 
DISL,ioos:station:DISL:MHPA:1,2010-10-03T13:30:00Z,30.6671,-87.9365,2.81,5.52,1111122 
DISL,ioos:station:DISL:MHPA:1,2010-10-03T14:00:00Z,30.6671,-87.9365,2.805,5.41,1111122 
DISL,ioos:station:DISL:MHPA:1,2010-10-03T14:30:00Z,30.6671,-87.9365,2.839,5.53,1111122 
DISL,ioos:station:DISL:MHPA:1,2010-10-03T15:00:00Z,30.6671,-87.9365,2.877,5.59,1111122 
DISL,ioos:station:DISL:MHPA:1,2010-10-03T15:30:00Z,30.6671,-87.9365,2.89,5.91,1111122 
DISL,ioos:station:DISL:MHPA:1,2010-10-03T16:00:00Z,30.6671,-87.9365,2.904,5.96,1111122 
DISL,ioos:station:DISL:MHPA:1,2010-10-03T16:30:00Z,30.6671,-87.9365,2.943,6.04,1111122 
DISL,ioos:station:DISL:MHPA:1,2010-10-03T17:00:00Z,30.6671,-87.9365,2.937,6.49,1111122 
DISL,ioos:station:DISL:MHPA:1,2010-10-03T17:30:00Z,30.6671,-87.9365,2.926,6.58,1111122 
DISL,ioos:station:DISL:MHPA:1,2010-10-03T18:00:00Z,30.6671,-87.9365,2.846,6.06,1111122 
DISL,ioos:station:DISL:MHPA:1,2010-10-03T18:30:00Z,30.6671,-87.9365,2.766,6.3,1111122 
DISL,ioos:station:DISL:MHPA:1,2010-10-03T19:00:00Z,30.6671,-87.9365,2.69,6.23,1111122 
DISL,ioos:station:DISL:MHPA:1,2010-10-03T19:30:00Z,30.6671,-87.9365,2.642,6.42,1111122 
DISL,ioos:station:DISL:MHPA:1,2010-10-03T20:00:00Z,30.6671,-87.9365,2.578,7.0,1111122 
DISL,ioos:station:DISL:MHPA:1,2010-10-03T20:30:00Z,30.6671,-87.9365,2.512,7.6,1111122 
DISL,ioos:station:DISL:MHPA:1,2010-10-03T21:00:00Z,30.6671,-87.9365,2.468,7.53,1111122 
DISL,ioos:station:DISL:MHPA:1,2010-10-03T21:30:00Z,30.6671,-87.9365,2.419,7.63,1111122 
DISL,ioos:station:DISL:MHPA:1,2010-10-03T22:00:00Z,30.6671,-87.9365,2.364,7.76,1111122 
DISL,ioos:station:DISL:MHPA:1,2010-10-03T22:30:00Z,30.6671,-87.9365,2.287,7.53,1111122 
DISL,ioos:station:DISL:MHPA:1,2010-10-03T23:00:00Z,30.6671,-87.9365,2.21,7.66,1111122 
DISL,ioos:station:DISL:MHPA:1,2010-10-03T23:30:00Z,30.6671,-87.9365,2.148,8.0,1111122 
DISL,ioos:station:DISL:MHPA:1,2010-10-04T00:00:00Z,30.6671,-87.9365,2.116,7.75,1111122 
DISL,ioos:station:DISL:MHPA:1,2010-10-04T00:30:00Z,30.6671,-87.9365,2.099,7.52,1111122 
DISL,ioos:station:DISL:MHPA:1,2010-10-04T01:00:00Z,30.6671,-87.9365,2.092,7.52,1111122 
DISL,ioos:station:DISL:MHPA:1,2010-10-04T01:30:00Z,30.6671,-87.9365,2.027,7.46,1111122 
DISL,ioos:station:DISL:MHPA:1,2010-10-04T02:00:00Z,30.6671,-87.9365,1.959,6.99,1111122 
DISL,ioos:station:DISL:MHPA:1,2010-10-04T02:30:00Z,30.6671,-87.9365,1.911,6.95,1111122 
DISL,ioos:station:DISL:MHPA:1,2010-10-04T03:00:00Z,30.6671,-87.9365,1.908,6.75,1111122 
DISL,ioos:station:DISL:MHPA:1,2010-10-04T03:30:00Z,30.6671,-87.9365,1.953,6.47,1111122 
DISL,ioos:station:DISL:MHPA:1,2010-10-04T04:00:00Z,30.6671,-87.9365,2.066,6.54,1111122 
DISL,ioos:station:DISL:MHPA:1,2010-10-04T04:30:00Z,30.6671,-87.9365,2.14,6.58,1111122 
DISL,ioos:station:DISL:MHPA:1,2010-10-04T05:00:00Z,30.6671,-87.9365,2.122,6.46,1111122 
DISL,ioos:station:DISL:MHPA:1,2010-10-04T05:30:00Z,30.6671,-87.9365,2.068,6.34,1111122 
DISL,ioos:station:DISL:MHPA:1,2010-10-04T06:00:00Z,30.6671,-87.9365,2.018,6.0,1111122 
DISL,ioos:station:DISL:MHPA:1,2010-10-04T06:30:00Z,30.6671,-87.9365,1.986,5.71,1111122 
DISL,ioos:station:DISL:MHPA:1,2010-10-04T07:00:00Z,30.6671,-87.9365,1.976,5.87,1111122 
DISL,ioos:station:DISL:MHPA:1,2010-10-04T07:30:00Z,30.6671,-87.9365,2.02,5.68,1111122 
DISL,ioos:station:DISL:MHPA:1,2010-10-04T08:00:00Z,30.6671,-87.9365,2.112,5.73,1111122 
DISL,ioos:station:DISL:MHPA:1,2010-10-04T08:30:00Z,30.6671,-87.9365,2.187,5.75,1111122 
DISL,ioos:station:DISL:MHPA:1,2010-10-04T09:00:00Z,30.6671,-87.9365,2.223,5.68,1111122 
DISL,ioos:station:DISL:MHPA:1,2010-10-04T09:30:00Z,30.6671,-87.9365,2.334,5.51,1111122 
DISL,ioos:station:DISL:MHPA:1,2010-10-04T10:00:00Z,30.6671,-87.9365,2.46,5.52,1111122 
DISL,ioos:station:DISL:MHPA:1,2010-10-04T10:30:00Z,30.6671,-87.9365,2.492,5.5,1111122 
DISL,ioos:station:DISL:MHPA:1,2010-10-04T11:00:00Z,30.6671,-87.9365,2.537,5.47,1111122 
DISL,ioos:station:DISL:MHPA:1,2010-10-04T11:30:00Z,30.6671,-87.9365,2.693,5.52,1111122 
DISL,ioos:station:DISL:MHPA:1,2010-10-04T12:00:00Z,30.6671,-87.9365,2.826,5.6,1111122 
DISL,ioos:station:DISL:MHPA:1,2010-10-04T12:30:00Z,30.6671,-87.9365,2.894,5.63,1111122 
DISL,ioos:station:DISL:MHPA:1,2010-10-04T13:00:00Z,30.6671,-87.9365,2.972,5.53,1111122 
DISL,ioos:station:DISL:MHPA:1,2010-10-04T13:30:00Z,30.6671,-87.9365,3.097,5.85,1111122 
DISL,ioos:station:DISL:MHPA:1,2010-10-04T14:00:00Z,30.6671,-87.9365,3.219,5.99,1111122 
DISL,ioos:station:DISL:MHPA:1,2010-10-04T14:30:00Z,30.6671,-87.9365,3.253,6.09,1111122 
DISL,ioos:station:DISL:MHPA:1,2010-10-04T15:00:00Z,30.6671,-87.9365,3.247,6.45,1111122 
DISL,ioos:station:DISL:MHPA:1,2010-10-04T15:30:00Z,30.6671,-87.9365,3.335,6.34,1111122 
DISL,ioos:station:DISL:MHPA:1,2010-10-04T16:00:00Z,30.6671,-87.9365,3.425,6.94,1111122 
DISL,ioos:station:DISL:MHPA:1,2010-10-04T16:30:00Z,30.6671,-87.9365,3.316,7.21,1111122 
DISL,ioos:station:DISL:MHPA:1,2010-10-04T17:00:00Z,30.6671,-87.9365,3.215,6.99,1111122 
DISL,ioos:station:DISL:MHPA:1,2010-10-04T17:30:00Z,30.6671,-87.9365,3.22,6.91,1111122 
DISL,ioos:station:DISL:MHPA:1,2010-10-04T18:00:00Z,30.6671,-87.9365,3.138,6.8,1111122 
DISL,ioos:station:DISL:MHPA:1,2010-10-04T18:30:00Z,30.6671,-87.9365,3.04,7.21,1111122 
DISL,ioos:station:DISL:MHPA:1,2010-10-04T19:00:00Z,30.6671,-87.9365,2.96,7.39,1111122 
DISL,ioos:station:DISL:MHPA:1,2010-10-04T19:30:00Z,30.6671,-87.9365,2.86,7.56,1111122 
DISL,ioos:station:DISL:MHPA:1,2010-10-04T20:00:00Z,30.6671,-87.9365,2.761,7.48,1111122 
DISL,ioos:station:DISL:MHPA:1,2010-10-04T20:30:00Z,30.6671,-87.9365,2.664,7.53,1111122 
DISL,ioos:station:DISL:MHPA:1,2010-10-04T21:00:00Z,30.6671,-87.9365,2.577,7.73,1111122 
DISL,ioos:station:DISL:MHPA:1,2010-10-04T21:30:00Z,30.6671,-87.9365,2.504,8.03,1111122 
DISL,ioos:station:DISL:MHPA:1,2010-10-04T22:00:00Z,30.6671,-87.9365,2.416,8.24,1111122 
DISL,ioos:station:DISL:MHPA:1,2010-10-04T22:30:00Z,30.6671,-87.9365,2.339,8.31,1111122 
DISL,ioos:station:DISL:MHPA:1,2010-10-04T23:00:00Z,30.6671,-87.9365,2.257,8.87,1111122 
DISL,ioos:station:DISL:MHPA:1,2010-10-04T23:30:00Z,30.6671,-87.9365,2.182,8.03,1111122 
DISL,ioos:station:DISL:MHPA:1,2010-10-05T00:00:00Z,30.6671,-87.9365,2.146,8.16,1111122 
DISL,ioos:station:DISL:MHPA:1,2010-10-05T00:30:00Z,30.6671,-87.9365,2.137,8.0,1111122 
DISL,ioos:station:DISL:MHPA:1,2010-10-05T01:00:00Z,30.6671,-87.9365,2.115,8.3,1111122 
DISL,ioos:station:DISL:MHPA:1,2010-10-05T01:30:00Z,30.6671,-87.9365,2.079,8.31,1111122 
DISL,ioos:station:DISL:MHPA:1,2010-10-05T02:00:00Z,30.6671,-87.9365,2.034,8.08,1111122 
DISL,ioos:station:DISL:MHPA:1,2010-10-05T02:30:00Z,30.6671,-87.9365,2.024,7.8,1111122 
DISL,ioos:station:DISL:MHPA:1,2010-10-05T03:00:00Z,30.6671,-87.9365,2.024,8.06,1111122 
DISL,ioos:station:DISL:MHPA:1,2010-10-05T03:30:00Z,30.6671,-87.9365,2.091,8.2,1111122 
DISL,ioos:station:DISL:MHPA:1,2010-10-05T04:00:00Z,30.6671,-87.9365,2.178,7.9,1111122 
DISL,ioos:station:DISL:MHPA:1,2010-10-05T04:30:00Z,30.6671,-87.9365,2.218,8.07,1111122 
DISL,ioos:station:DISL:MHPA:1,2010-10-05T05:00:00Z,30.6671,-87.9365,2.26,7.88,1111122 
DISL,ioos:station:DISL:MHPA:1,2010-10-05T05:30:00Z,30.6671,-87.9365,2.321,7.53,1111122 
DISL,ioos:station:DISL:MHPA:1,2010-10-05T06:00:00Z,30.6671,-87.9365,2.342,7.54,1111122 
DISL,ioos:station:DISL:MHPA:1,2010-10-05T06:30:00Z,30.6671,-87.9365,2.347,7.59,1111122 
DISL,ioos:station:DISL:MHPA:1,2010-10-05T07:00:00Z,30.6671,-87.9365,2.319,7.34,1111122 
DISL,ioos:station:DISL:MHPA:1,2010-10-05T07:30:00Z,30.6671,-87.9365,2.303,7.15,1111122 
DISL,ioos:station:DISL:MHPA:1,2010-10-05T08:00:00Z,30.6671,-87.9365,2.333,7.1,1111122 
DISL,ioos:station:DISL:MHPA:1,2010-10-05T08:30:00Z,30.6671,-87.9365,2.353,6.99,1111122 
DISL,ioos:station:DISL:MHPA:1,2010-10-05T09:00:00Z,30.6671,-87.9365,2.32,6.99,1111122 
DISL,ioos:station:DISL:MHPA:1,2010-10-05T09:30:00Z,30.6671,-87.9365,2.282,7.18,1111122 
DISL,ioos:station:DISL:MHPA:1,2010-10-05T10:00:00Z,30.6671,-87.9365,2.307,7.51,1111122 
DISL,ioos:station:DISL:MHPA:1,2010-10-05T10:30:00Z,30.6671,-87.9365,2.396,7.55,1111122 
DISL,ioos:station:DISL:MHPA:1,2010-10-05T11:00:00Z,30.6671,-87.9365,2.479,7.31,1111122 
DISL,ioos:station:DISL:MHPA:1,2010-10-05T11:30:00Z,30.6671,-87.9365,2.463,7.14,1111122 
DISL,ioos:station:DISL:MHPA:1,2010-10-05T12:00:00Z,30.6671,-87.9365,2.529,6.76,1111122 
DISL,ioos:station:DISL:MHPA:1,2010-10-05T12:30:00Z,30.6671,-87.9365,2.624,6.56,1111122 
DISL,ioos:station:DISL:MHPA:1,2010-10-05T13:00:00Z,30.6671,-87.9365,2.725,6.39,1111122 
DISL,ioos:station:DISL:MHPA:1,2010-10-05T13:30:00Z,30.6671,-87.9365,2.796,6.39,1111122 
DISL,ioos:station:DISL:MHPA:1,2010-10-05T14:00:00Z,30.6671,-87.9365,2.89,6.41,1111122 
DISL,ioos:station:DISL:MHPA:1,2010-10-05T14:30:00Z,30.6671,-87.9365,2.941,6.59,1111122 
DISL,ioos:station:DISL:MHPA:1,2010-10-05T15:00:00Z,30.6671,-87.9365,3.01,6.89,1111122 
DISL,ioos:station:DISL:MHPA:1,2010-10-05T15:30:00Z,30.6671,-87.9365,3.12,7.0,1111122 
DISL,ioos:station:DISL:MHPA:1,2010-10-05T16:00:00Z,30.6671,-87.9365,3.164,7.14,1111122 
DISL,ioos:station:DISL:MHPA:1,2010-10-05T16:30:00Z,30.6671,-87.9365,3.164,7.0,1111122 
DISL,ioos:station:DISL:MHPA:1,2010-10-05T17:00:00Z,30.6671,-87.9365,3.2,7.02,1111122 
DISL,ioos:station:DISL:MHPA:1,2010-10-05T17:30:00Z,30.6671,-87.9365,3.235,6.93,1111122 
DISL,ioos:station:DISL:MHPA:1,2010-10-05T18:00:00Z,30.6671,-87.9365,3.244,7.22,1111122 
DISL,ioos:station:DISL:MHPA:1,2010-10-05T18:30:00Z,30.6671,-87.9365,3.191,7.6,1111122 
DISL,ioos:station:DISL:MHPA:1,2010-10-05T19:00:00Z,30.6671,-87.9365,3.123,7.54,1111122 
DISL,ioos:station:DISL:MHPA:1,2010-10-05T19:30:00Z,30.6671,-87.9365,3.061,7.1,1111122 
DISL,ioos:station:DISL:MHPA:1,2010-10-05T20:00:00Z,30.6671,-87.9365,2.989,7.63,1111122 
DISL,ioos:station:DISL:MHPA:1,2010-10-05T20:30:00Z,30.6671,-87.9365,2.925,7.95,1111122 
DISL,ioos:station:DISL:MHPA:1,2010-10-05T21:00:00Z,30.6671,-87.9365,2.832,8.21,1111122 
DISL,ioos:station:DISL:MHPA:1,2010-10-05T21:30:00Z,30.6671,-87.9365,2.775,8.53,1111122 
DISL,ioos:station:DISL:MHPA:1,2010-10-05T22:00:00Z,30.6671,-87.9365,2.688,8.51,1111122 
DISL,ioos:station:DISL:MHPA:1,2010-10-05T22:30:00Z,30.6671,-87.9365,2.597,8.38,1111122 
DISL,ioos:station:DISL:MHPA:1,2010-10-05T23:00:00Z,30.6671,-87.9365,2.532,8.48,1111122 
DISL,ioos:station:DISL:MHPA:1,2010-10-05T23:30:00Z,30.6671,-87.9365,2.488,8.21,1111122 
DISL,ioos:station:DISL:MHPA:1,2010-10-06T00:00:00Z,30.6671,-87.9365,2.482,8.53,1111122 
DISL,ioos:station:DISL:MHPA:1,2010-10-06T00:30:00Z,30.6671,-87.9365,2.528,8.52,1111122 
DISL,ioos:station:DISL:MHPA:1,2010-10-06T01:00:00Z,30.6671,-87.9365,2.569,8.5,1111122 
DISL,ioos:station:DISL:MHPA:1,2010-10-06T01:30:00Z,30.6671,-87.9365,2.628,8.41,1111122 
DISL,ioos:station:DISL:MHPA:1,2010-10-06T02:00:00Z,30.6671,-87.9365,2.728,8.43,1111122 
DISL,ioos:station:DISL:MHPA:1,2010-10-06T02:30:00Z,30.6671,-87.9365,2.772,8.21,1111122 
DISL,ioos:station:DISL:MHPA:1,2010-10-06T03:00:00Z,30.6671,-87.9365,2.777,8.41,1111122 
DISL,ioos:station:DISL:MHPA:1,2010-10-06T03:30:00Z,30.6671,-87.9365,2.801,8.48,1111122 
DISL,ioos:station:DISL:MHPA:1,2010-10-06T04:00:00Z,30.6671,-87.9365,2.82,7.99,1111122 
DISL,ioos:station:DISL:MHPA:1,2010-10-06T04:30:00Z,30.6671,-87.9365,2.818,8.23,1111122 
DISL,ioos:station:DISL:MHPA:1,2010-10-06T05:00:00Z,30.6671,-87.9365,2.889,8.23,1111122 
DISL,ioos:station:DISL:MHPA:1,2010-10-06T05:30:00Z,30.6671,-87.9365,2.89,8.05,1111122 
DISL,ioos:station:DISL:MHPA:1,2010-10-06T06:00:00Z,30.6671,-87.9365,2.94,8.23,1111122 
DISL,ioos:station:DISL:MHPA:1,2010-10-06T06:30:00Z,30.6671,-87.9365,3.05,7.9,1111122 
DISL,ioos:station:DISL:MHPA:1,2010-10-06T07:00:00Z,30.6671,-87.9365,3.047,7.8,1111122 
DISL,ioos:station:DISL:MHPA:1,2010-10-06T07:30:00Z,30.6671,-87.9365,2.932,7.63,1111122 
DISL,ioos:station:DISL:MHPA:1,2010-10-06T08:00:00Z,30.6671,-87.9365,2.881,7.66,1111122 
DISL,ioos:station:DISL:MHPA:1,2010-10-06T08:30:00Z,30.6671,-87.9365,2.823,7.52,1111122 
DISL,ioos:station:DISL:MHPA:1,2010-10-06T09:00:00Z,30.6671,-87.9365,2.721,7.44,1111122 
DISL,ioos:station:DISL:MHPA:1,2010-10-06T09:30:00Z,30.6671,-87.9365,2.655,7.28,1111122 
DISL,ioos:station:DISL:MHPA:1,2010-10-06T10:00:00Z,30.6671,-87.9365,2.627,7.66,1111122 
DISL,ioos:station:DISL:MHPA:1,2010-10-06T10:30:00Z,30.6671,-87.9365,2.564,7.36,1111122 
DISL,ioos:station:DISL:MHPA:1,2010-10-06T11:00:00Z,30.6671,-87.9365,2.54,6.7,1111122 
DISL,ioos:station:DISL:MHPA:1,2010-10-06T11:30:00Z,30.6671,-87.9365,2.548,7.17,1111122 
DISL,ioos:station:DISL:MHPA:1,2010-10-06T12:00:00Z,30.6671,-87.9365,2.62,7.24,1111122 
DISL,ioos:station:DISL:MHPA:1,2010-10-06T12:30:00Z,30.6671,-87.9365,2.703,7.23,1111122 
DISL,ioos:station:DISL:MHPA:1,2010-10-06T13:00:00Z,30.6671,-87.9365,2.766,7.23,1111122 
DISL,ioos:station:DISL:MHPA:1,2010-10-06T13:30:00Z,30.6671,-87.9365,2.836,7.35,1111122 
DISL,ioos:station:DISL:MHPA:1,2010-10-06T14:00:00Z,30.6671,-87.9365,2.881,7.46,1111122 
DISL,ioos:station:DISL:MHPA:1,2010-10-06T14:30:00Z,30.6671,-87.9365,2.923,7.24,1111122 
DISL,ioos:station:DISL:MHPA:1,2010-10-06T15:00:00Z,30.6671,-87.9365,3.035,7.8,1111122 
DISL,ioos:station:DISL:MHPA:1,2010-10-06T15:30:00Z,30.6671,-87.9365,3.177,7.65,1111122 